sat.trackr.live / text

‹ back to catalog

AMAZONIA 1

NORAD 47699 · 2021-015A

PAYLOAD ACTIVE UNKNOWN

§ Identity

Operator
Country
BRAZ
Launch date
2021-02-28
Launch site
SRILR
Launch vehicle
Mass (kg)
RCS (m²)

External: N2YO · Heavens-Above · Gunter

§ Orbital elements

Epoch: 2026-05-25T04:08:17.883744Z

Period
99.94 min
Inclination
98.4318°
Eccentricity
0.0001766
Mean motion
14.40806245 rev/d
Perigee alt
754.6 km
Apogee alt
757.1 km
Semi-major
7,134.0 km
B*
6.8477e-5
RAAN
218.1486°
Arg perigee
264.4998°
Mean anomaly
95.5990°
Rev number
27,533

§ Raw data

AMAZONIA 11 47699U 21015A   26145.17242921  .00000176  00000+0  68477-4 0  99992 47699  98.4318 218.1486 0001766 264.4998  95.5990 14.40806245275333

JSON: /api/v1/satellites/47699 · /tle

For live sub-satellite position, see the globe view (requires WebGL).

§ Visibility from observer

Set your observer location to see the next 7 days of passes ≥ 10°. The values pass through the URL so the page stays shareable.

No JS? Fill the form by hand. The geolocation button needs JavaScript.